Weather History for KGAG - December, 2012

Change the Weather History Date:

Sunday, December 2, 2012

  Actual Average Record
Temperature  
Mean Temperature 50 °F -  
Max Temperature 71 °F 52 °F 78 °F (1951)
Min Temperature 30 °F 22 °F 3 °F (1985)
Degree Days  
Heating Degree Days 14    
Moisture  
Dew Point 33 °F    
Average Humidity 54    
Maximum Humidity 89    
Minimum Humidity 23    
Precipitation  
Precipitation 0.00 in - - ()
Sea Level Pressure  
Sea Level Pressure 29.92 in    
Wind  
Wind Speed 9 mph (SSW)    
Max Wind Speed 23 mph    
Max Gust Speed 30 mph    
Visibility 10 miles    
Events      
Averages and records for this station are not official NWS values.
T = Trace of Precipitation, MM = Missing Value Source: NWS Daily Summary

Daily Weather History Graph

Daily Weather History Graph

Search for Another Location

Airport or City:

Trip Planner

Search our weather history database for the weather conditions in past years. The results will help you decide how hot, cold, wet, or windy it might be!

Date:

Astronomy

Dec. 02, 2012 Rise Set
Actual Time 7:33 AM CST 5:24 PM CST
Civil Twilight 7:04 AM CST 5:52 PM CST
Nautical Twilight 6:33 AM CST 6:24 PM CST
Astronomical Twilight 6:02 AM CST 6:55 PM CST
Moon 9:10 PM CST (12/2) 10:26 AM CST (12/2)
Length of Visible Light 10h 47m
Length of Day
9h 50m
Waning Gibbous, 85% of the Moon is Illuminated
Dec 2
Waning Gibbous
Dec 6
Last Quarter
Dec 13
New
Dec 19
First Quarter
Dec 28
Full

Hourly Weather History & Observations

Time (CST) Temp. Windchill Dew Point Humidity Pressure Visibility Wind Dir Wind Speed Gust Speed Precip Events Conditions
12:53 AM 39.0 °F 34.0 °F 33.1 °F 79% 29.96 in 10.0 mi WSW 6.9 mph - N/A   Clear
1:53 AM 36.0 °F 31.1 °F 30.9 °F 82% 29.96 in 10.0 mi WSW 5.8 mph - N/A   Clear
2:53 AM 35.1 °F 28.6 °F 30.0 °F 82% 29.97 in 10.0 mi West 8.1 mph - N/A   Clear
3:53 AM 33.1 °F 27.7 °F 28.9 °F 85% 29.98 in 10.0 mi WSW 5.8 mph - N/A   Clear
4:53 AM 36.0 °F 32.1 °F 30.9 °F 82% 29.99 in 10.0 mi South 4.6 mph - N/A   Clear
5:53 AM 30.9 °F 25.2 °F 28.0 °F 89% 30.01 in 10.0 mi West 5.8 mph - N/A   Clear
6:53 AM 33.1 °F - 28.0 °F 82% 30.03 in 10.0 mi Calm Calm - N/A   Clear
7:53 AM 30.9 °F 26.2 °F 28.0 °F 89% 30.06 in 9.0 mi SSE 4.6 mph - N/A   Clear
8:53 AM 37.0 °F 33.3 °F 30.0 °F 76% 30.05 in 10.0 mi NW 4.6 mph - N/A   Clear
9:53 AM 46.0 °F 42.5 °F 32.0 °F 58% 30.06 in 10.0 mi WSW 6.9 mph - N/A   Clear
10:53 AM 54.0 °F - 32.0 °F 43% 30.03 in 10.0 mi WNW 3.5 mph - N/A   Clear
11:53 AM 61.0 °F - 32.0 °F 34% 29.99 in 10.0 mi ENE 3.5 mph - N/A   Clear
12:53 PM 69.1 °F - 33.1 °F 26% 29.92 in 10.0 mi Variable 6.9 mph - N/A   Clear
1:53 PM 70.0 °F - 33.1 °F 26% 29.91 in 10.0 mi South 13.8 mph - N/A   Clear
2:53 PM 69.1 °F - 34.0 °F 27% 29.88 in 10.0 mi South 18.4 mph - N/A   Clear
3:53 PM 71.1 °F - 30.9 °F 23% 29.85 in 10.0 mi South 16.1 mph - N/A   Clear
4:53 PM 66.9 °F - 32.0 °F 27% 29.84 in 10.0 mi SSE 13.8 mph 23.0 mph N/A   Clear
5:53 PM 61.0 °F - 28.9 °F 30% 29.84 in 10.0 mi SSE 11.5 mph - N/A   Clear
6:53 PM 60.1 °F - 28.0 °F 30% 29.82 in 10.0 mi South 15.0 mph - N/A   Clear
7:53 PM 57.9 °F - 36.0 °F 44% 29.81 in 10.0 mi South 12.7 mph - N/A   Clear
8:53 PM 63.0 °F - 42.1 °F 46% 29.78 in 10.0 mi South 23.0 mph 28.8 mph N/A   Clear
9:53 PM 63.0 °F - 39.0 °F 41% 29.77 in 10.0 mi South 20.7 mph 29.9 mph N/A   Clear
10:53 PM 61.0 °F - 39.9 °F 46% 29.75 in 10.0 mi South 19.6 mph - N/A   Clear
11:53 PM 59.0 °F - 43.0 °F 55% 29.73 in 10.0 mi South 19.6 mph - N/A   Clear